Regional Weather Roundup
Issued by NWS

Home | Current Version | Previous Version | Text Only | Print | Product List | Glossary Off
Versions: 1 2 3 4 5 6 7 8 9 10 11 12 13 14 15 16 17 18 19 20 21 22 23 24 25 26 27 28 29 30 31 32 33 34 35 36 37 38 39 40 41 42 43 44 45 46 47 48 49 50

000
ASUS43 KOAX 021402
RWRNE

WEATHER ROUNDUP FOR NEBRASKA
NATIONAL WEATHER SERVICE OMAHA NE
900 AM CDT THU JUL 02 2015

NOTES: SATELLITE DATA IS BEING USED TO AUGMENT CLOUD COVER ABOVE
       12000 FEET.
       "FAIR" INDICATES FEW OR NO CLOUDS BELOW 12,000 FEET WITH NO
       SIGNIFICANT WEATHER AND/OR OBSTRUCTIONS TO VISIBILITY.

  * THESE STATIONS DO NOT REPORT WEATHER SUCH AS RAIN...SNOW OR FOG.

NEZ001>004-019>022-054>056-021500-
NEBRASKA PANHANDLE

CITY           SKY/WX    TMP DP  RH WIND       PRES   REMARKS
SCOTTSBLUFF    MOSUNNY   65  61  87 W14       30.14S
ALLIANCE       SUNNY     64  59  83 W16       30.11R
CHADRON        SUNNY     67  61  81 NW10G18   30.10R
SIDNEY         CLOUDY    62  60  93 W7        30.14R
$$

NEZ057>060-069>072-079>082-021500-
SOUTHWEST NEBRASKA

CITY           SKY/WX    TMP DP  RH WIND       PRES   REMARKS
NORTH PLATTE   CLOUDY    66  62  87 N12G21    30.01R
IMPERIAL       CLOUDY    63  60  90 SW7       30.06F
MCCOOK         CLOUDY    66  60  81 CALM      30.03S
$$

NEZ005>010-023>029-035>040-094-021500-
NORTH CENTRAL NEBRASKA

CITY           SKY/WX    TMP DP  RH WIND       PRES   REMARKS
VALENTINE      SUNNY     70  62  76 NW13      29.99R
BROKEN BOW     CLOUDY    69  61  75 N12       29.97R
ORD              N/A     69  68  96 SW5       29.95  FOG
$$

NEZ041-046>049-061>064-073>077-083>087-021500-
SOUTH CENTRAL NEBRASKA

CITY           SKY/WX    TMP DP  RH WIND       PRES   REMARKS
GRAND ISLAND   CLOUDY    71  68  90 SW10      29.95F
HASTINGS       LGT RAIN  69  69 100 S5        29.95F
KEARNEY *      CLOUDY    70  66  88 S8        29.95F
$$

NEZ011>018-030>034-042>045-021500-
NORTHEAST NEBRASKA

CITY           SKY/WX    TMP DP  RH WIND       PRES   REMARKS
NORFOLK        LGT RAIN  62  61  96 SE8       29.95F
COLUMBUS *     CLOUDY    64  55  72 E7        29.96F
TEKAMAH        CLOUDY    64  58  80 E8        29.97S
$$

NEZ050>053-065>068-078-088>093-021500-
SOUTHEAST NEBRASKA

CITY           SKY/WX    TMP DP  RH WIND       PRES   REMARKS
LINCOLN        CLOUDY    67  63  87 E9        29.95S FOG
OMAHA EPPLEY   CLOUDY    65  60  84 E6        29.97R
FALLS CITY     CLOUDY    69  66  90 NE9       29.93R
$$

NEZ044-045-051>053-067-021500-
OMAHA AREA

CITY           SKY/WX    TMP DP  RH WIND       PRES   REMARKS
OMAHA EPPLEY   CLOUDY    65  60  84 E6        29.97R
OFFUTT AFB     CLOUDY    66  61  85 E6        29.96R
$$



USA.gov is the U.S. government's official web portal to all federal, state and local government web resources and services.